sat.trackr.live / text

‹ back to catalog

STARLINK-11205 [DTC]

NORAD 60313 · 2024-133N

PAYLOAD ACTIVE UNKNOWN

§ Identity

Operator
Country
US
Launch date
2024-07-28
Launch site
AFWTR
Launch vehicle
Mass (kg)
RCS (m²)

Purposes: comms

External: N2YO · Heavens-Above · Gunter

§ Orbital elements

Epoch: 2026-09-20T05:17:14.028864Z

Period
91.74 min
Inclination
53.1590°
Eccentricity
0.0001233
Mean motion
15.69696829 rev/d
Perigee alt
358.9 km
Apogee alt
360.6 km
Semi-major
6,737.9 km
B*
-9.1432e-6
RAAN
267.5228°
Arg perigee
80.6949°
Mean anomaly
279.4208°
Rev number
12,428

§ Raw data

STARLINK-11205 [DTC]1 60313U 24133N   26263.22030126 -.00001696  00000+0 -91432-5 0  99982 60313  53.1590 267.5228 0001233  80.6949 279.4208 15.69696829124285

JSON: /api/v1/satellites/60313 · /tle

For live sub-satellite position, see the globe view (requires WebGL).

§ Visibility from observer

Set your observer location to see the next 7 days of passes ≥ 10°. The values pass through the URL so the page stays shareable.

No JS? Fill the form by hand. The geolocation button needs JavaScript.